Date String (YYYY-MM-DD hh:mm:ss) UTC,Instrument flags,absolute air pressure of the measurement (hPa),sample flow rate (lpm),inlet stack bypass flow (lpm),air temperature of the measurement (°C),ambient temperature measured by the external sensor (°C),aerosol sample conditioner tube jacket temperature (°C),OPC LED temperature (°C),internal box temperature (°C),relative humidity of the measurement (%),span deviation,mass concentration of particles derived from Lorenz-Mie calculation of OPC scattering (μg/m³),mass concentration of particles derived from Lorenz-Mie calculation of OPC scattering (μg/m³),mass concentration of particles derived from Lorenz-Mie calculation of OPC scattering (μg/m³)
DateTimeUTC,F1_M11,P_M11,Q1_M11,Q2_M11,T1_M11,T2_M11,T3_M11,T4_M11,T5_M11,U1_M11,ZSPAN_M11,X0_M11,X2_M11,X1_M11
2023-12-29 13:00:00,SystemResetWarning,0835.2,5.01,000.00,018.7,017.6,000.0,027.1,020.0,5.6,0000.0,0000.41,0000.30,0000.24
2023-12-29 13:01:00,SystemResetWarning,0835.2,4.99,000.00,018.7,017.5,000.0,027.1,020.0,5.5,0000.0,0000.45,0000.32,0000.25
2023-12-29 13:02:00,SystemResetWarning,0835.2,5.00,000.00,018.7,017.5,000.0,027.1,020.0,5.5,0000.0,0000.49,0000.33,0000.25
2023-12-29 13:03:00,SystemResetWarning,0835.2,5.00,000.00,018.7,017.5,000.0,027.1,020.0,5.6,0000.0,0000.50,0000.34,0000.25
2023-12-29 13:04:00,SystemResetWarning,0835.2,5.00,000.00,018.7,017.4,000.0,027.1,020.0,5.6,0000.0,0000.53,0000.35,0000.25
2023-12-29 13:05:00,SystemResetWarning,0835.2,5.00,000.00,018.7,017.4,000.0,027.1,020.0,5.6,0000.0,0000.54,0000.35,0000.25
2023-12-29 13:06:00,SystemResetWarning,0835.3,5.00,000.00,018.6,017.4,000.0,027.1,020.0,5.7,0000.0,0000.55,0000.34,0000.25
2023-12-29 13:07:00,SystemResetWarning,0835.3,5.00,000.00,018.6,017.4,000.0,027.1,020.0,5.8,0000.0,0000.56,0000.34,0000.25
2023-12-29 13:08:00,SystemResetWarning,0835.3,5.00,000.00,018.6,017.4,000.0,027.1,020.0,5.9,0000.0,0000.57,0000.35,0000.25
2023-12-29 13:09:00,SystemResetWarning,0835.2,5.00,000.00,018.6,017.4,000.0,027.1,020.0,6.0,0000.0,0000.58,0000.34,0000.26
2023-12-29 13:10:00,SystemResetWarning,0835.2,5.00,000.00,018.6,017.4,000.0,027.1,020.0,6.2,0000.0,0000.63,0000.36,0000.26
2023-12-29 13:11:00,SystemResetWarning,0835.3,5.01,000.00,018.6,017.4,000.0,027.1,020.0,6.1,0000.0,0000.63,0000.36,0000.26
2023-12-29 13:12:00,SystemResetWarning,0835.2,5.00,000.00,018.6,017.4,000.0,027.1,020.0,6.0,0000.0,0000.61,0000.35,0000.25
2023-12-29 13:13:00,SystemResetWarning,0835.2,5.00,000.00,018.6,017.4,000.0,027.1,020.0,5.9,0000.0,0000.53,0000.32,0000.25
2023-12-29 13:14:00,SystemResetWarning,0835.2,5.00,000.00,018.6,017.3,000.0,027.1,020.0,5.9,0000.0,0000.54,0000.33,0000.24
2023-12-29 13:15:00,SystemResetWarning,0835.2,5.00,000.00,018.6,017.3,000.0,027.1,020.0,5.9,0000.0,0000.56,0000.34,0000.24
2023-12-29 13:16:00,SystemResetWarning,0835.2,4.99,000.00,018.6,017.3,000.0,027.1,020.0,6.0,0000.0,0000.57,0000.35,0000.24
2023-12-29 13:17:00,SystemResetWarning,0835.3,5.00,000.00,018.6,017.3,000.0,027.1,020.0,6.1,0000.0,0000.54,0000.34,0000.24
2023-12-29 13:18:00,SystemResetWarning,0835.2,4.99,000.00,018.6,017.3,000.0,027.1,020.0,6.2,0000.0,0000.52,0000.34,0000.23
2023-12-29 13:19:00,SystemResetWarning,0835.2,5.00,000.00,018.6,017.3,000.0,027.1,020.0,6.3,0000.0,0000.51,0000.34,0000.22
2023-12-29 13:20:00,SystemResetWarning,0835.2,4.99,000.00,018.6,017.3,000.0,027.1,020.0,6.3,0000.0,0000.48,0000.32,0000.22
2023-12-29 13:21:00,SystemResetWarning,0835.2,5.00,000.00,018.6,017.3,000.0,027.1,020.0,6.3,0000.0,0000.44,0000.31,0000.22
2023-12-29 13:22:00,SystemResetWarning,0835.2,5.00,000.00,018.6,017.3,000.0,027.1,020.0,6.4,0000.0,0000.43,0000.30,0000.21
2023-12-29 13:23:00,SystemResetWarning,0835.2,5.01,000.00,018.6,017.4,000.0,027.1,020.1,6.4,0000.0,0000.43,0000.30,0000.21
2023-12-29 13:24:00,SystemResetWarning,0835.2,5.02,000.00,018.7,018.0,000.0,027.1,020.5,6.5,0000.0,0000.42,0000.30,0000.21
2023-12-29 13:25:00,SystemResetWarning,0835.2,4.99,000.00,018.9,018.8,000.0,027.1,020.8,6.5,0000.0,0000.42,0000.30,0000.22
2023-12-29 13:26:00,SystemResetWarning,0835.2,4.98,000.00,018.9,018.8,000.0,027.1,020.6,6.4,0000.0,0000.39,0000.29,0000.22
2023-12-29 13:27:00,SystemResetWarning,0835.2,5.02,000.00,018.9,018.8,000.0,027.1,020.4,6.5,0000.0,0000.37,0000.28,0000.23
2023-12-29 13:28:00,SystemResetWarning,0835.2,5.01,000.00,018.9,018.6,000.0,027.1,020.2,6.5,0000.0,0000.35,0000.26,0000.22
2023-12-29 13:29:00,SystemResetWarning,0835.2,4.99,000.00,018.9,018.5,000.0,027.1,020.2,6.6,0000.0,0000.33,0000.26,0000.23
2023-12-29 13:30:00,SystemResetWarning,0835.3,4.99,000.00,018.9,018.3,000.0,027.1,020.1,6.6,0000.0,0000.31,0000.25,0000.23
2023-12-29 13:31:00,SystemResetWarning,0835.3,5.00,000.00,018.8,018.1,000.0,027.1,020.1,6.7,0000.0,0000.30,0000.25,0000.23
2023-12-29 13:32:00,SystemResetWarning,0835.3,5.01,000.00,018.8,018.0,000.0,027.1,020.0,6.8,0000.0,0000.30,0000.25,0000.24
2023-12-29 13:33:00,SystemResetWarning,0835.3,5.01,000.00,018.8,017.9,000.0,027.1,020.0,6.8,0000.0,0000.30,0000.25,0000.24
2023-12-29 13:34:00,SystemResetWarning,0835.3,5.01,000.00,018.8,017.8,000.0,027.1,020.0,6.9,0000.0,0000.30,0000.25,0000.24
2023-12-29 13:35:00,SystemResetWarning,0835.3,5.00,000.00,018.8,017.8,000.0,027.1,020.0,6.9,0000.0,0000.31,0000.25,0000.24
2023-12-29 13:36:00,SystemResetWarning,0835.3,4.99,000.00,018.7,017.7,000.0,027.1,020.0,6.9,0000.0,0000.37,0000.27,0000.23
2023-12-29 13:37:00,SystemResetWarning,0835.2,4.99,000.00,018.7,017.6,000.0,027.1,020.0,6.9,0000.0,0000.39,0000.27,0000.23
2023-12-29 13:38:00,SystemResetWarning,0835.2,5.00,000.00,018.7,017.6,000.0,027.1,020.0,6.9,0000.0,0000.40,0000.27,0000.23
2023-12-29 13:39:00,SystemResetWarning,0835.3,5.00,000.00,018.7,017.6,000.0,027.1,020.0,6.9,0000.0,0000.42,0000.28,0000.23
2023-12-29 13:40:00,SystemResetWarning,0835.3,5.00,000.00,018.7,017.5,000.0,027.1,020.0,6.9,0000.0,0000.44,0000.29,0000.23
2023-12-29 13:41:00,SystemResetWarning,0835.2,5.01,000.00,018.7,017.5,000.0,027.1,020.0,6.9,0000.0,0000.47,0000.30,0000.23
2023-12-29 13:42:00,SystemResetWarning,0835.2,5.01,000.00,018.7,017.5,000.0,027.1,020.0,6.9,0000.0,0000.49,0000.32,0000.23
2023-12-29 13:43:00,SystemResetWarning,0835.2,5.00,000.00,018.7,017.4,000.0,027.1,020.0,6.8,0000.0,0000.52,0000.32,0000.22
2023-12-29 13:44:00,SystemResetWarning,0835.2,4.99,000.00,018.7,017.4,000.0,027.1,020.0,6.8,0000.0,0000.55,0000.33,0000.23
2023-12-29 13:45:00,SystemResetWarning,0835.2,4.99,000.00,018.7,017.4,000.0,027.1,020.0,6.7,0000.0,0000.56,0000.33,0000.23
2023-12-29 13:46:00,SystemResetWarning,0835.2,4.99,000.00,018.7,017.4,000.0,027.1,020.0,6.8,0000.0,0000.58,0000.35,0000.22
2023-12-29 13:47:00,SystemResetWarning,0835.2,5.00,000.00,018.6,017.4,000.0,027.1,020.0,6.8,0000.0,0000.52,0000.33,0000.23
2023-12-29 13:48:00,SystemResetWarning,0835.2,5.00,000.00,018.6,017.4,000.0,027.1,020.0,6.8,0000.0,0000.48,0000.32,0000.23
2023-12-29 13:49:00,SystemResetWarning,0835.3,5.00,000.00,018.6,017.4,000.0,027.1,020.0,6.8,0000.0,0000.47,0000.32,0000.24
2023-12-29 13:50:00,SystemResetWarning,0835.2,5.01,000.00,018.6,017.3,000.0,027.2,020.0,6.7,0000.0,0000.47,0000.32,0000.24
2023-12-29 13:51:00,SystemResetWarning,0835.2,5.00,000.00,018.6,017.3,000.0,027.1,020.0,6.8,0000.0,0000.45,0000.31,0000.24
2023-12-29 13:52:00,SystemResetWarning,0835.2,5.00,000.00,018.6,017.3,000.0,027.1,020.0,6.9,0000.0,0000.42,0000.30,0000.24
2023-12-29 13:53:00,SystemResetWarning,0835.2,5.00,000.00,018.6,017.3,000.0,027.2,020.0,6.9,0000.0,0000.40,0000.29,0000.24
2023-12-29 13:54:00,SystemResetWarning,0835.3,5.00,000.00,018.6,017.3,000.0,027.2,020.0,6.8,0000.0,0000.38,0000.28,0000.24
2023-12-29 13:55:00,SystemResetWarning,0835.2,5.00,000.00,018.6,017.3,000.0,027.2,020.0,7.0,0000.0,0000.37,0000.29,0000.24
2023-12-29 13:56:00,SystemResetWarning,0835.2,5.00,000.00,018.6,017.3,000.0,027.1,020.0,6.8,0000.0,0000.36,0000.29,0000.25
2023-12-29 13:57:00,SystemResetWarning,0835.3,5.00,000.00,018.6,017.2,000.0,027.1,020.0,6.8,0000.0,0000.35,0000.28,0000.25
2023-12-29 13:58:00,SystemResetWarning,0835.3,5.00,000.00,018.6,017.2,000.0,027.2,020.0,6.8,0000.0,0000.40,0000.30,0000.25
2023-12-29 13:59:00,SystemResetWarning,0835.3,5.00,000.00,018.6,017.2,000.0,027.2,020.0,6.8,0000.0,0000.41,0000.30,0000.25
